Find Kosmos-2522

NORAD ID: 42939 Int'l Des: 2017-055 Owner: VVKOV/IACG Country: RU Constellation: GLONASS operational
MEOCIRCULAR

当前视图

正在加载3D地球...

About Kosmos-2522

Kosmos-2522 (NORAD 42939) is a GLONASS constellation satellite launched Sep 22, 2017 by VVKOV/IACG of RU. It operates in MEO, CIRCULAR orbit with a mass of 1450.00 kg.

关于 Kosmos-2522

正在加载描述...

即将过境

Passes for default location (London). Set your location on the main map for personalized predictions.

高度历史

Loading altitude history...

两行轨道根数

1 42939U 17055A 26169.06146248 .00000058 00000-0 00000-0 0 9993
2 42939 64.0788 191.8550 0011120 242.4701 117.4658 2.13102224 67996
Epoch: Jun 18, 2026 • Age: 38 hours

当前状态

高度 19136.7 km
速度 3.95 km/s
星下点 32.36°N, 150.36°W
发射日期 Sep 22, 2017
运行时间 8.7 years
类型 other

技术详情

分类 Payload
质量 1450.00 kg
干质量 1200.00 kg
总质量 1450.00 kg
长度 4.00 m
直径 1.50 m
跨度 7.80 m
形状 Cyl + Ant + 2 Pan
制造商 RESH
平台类型 Uragan
阶段状态 In Orbit
所有者/国家 VVKOV/IACG/RU

Most Searched